FALCON 9 R/B, 44480

Orbit data source: Space-Track

FALCON 9 R/B, 44480 is space debris in HEO originally from a launch on Tue, 06 Aug 2019 UTC launched from the Air Force Eastern Test Range (AFETR). Debris objects in space refer to the collection of defunct objects orbiting the Earth. Examples of debris include non-operational satellites, rocket bodies, and fragments generated from explosions, collisions, or faulty payload assembly.

Loading next visibility...
Identifier
44480, 2019-050B
Orbit
HEO
Last TLE update
14 hours ago
Origin
Manufacturer
SpaceX
Mission
Spacecraft
Bus & Motor
F9ST2, Unknown motor
Mass
~4,000 kg wet, ~4,000 kg dry
Launch date (UTC)
2019-08-06 (6 years ago)
Launch vehicle
Unknown
Launch site
Air Force Eastern Test Range (AFETR)
Object type
Payload
Rocket body
Debris
Shape & HBR
Cyl, 15.53 m
Radar Cross Section
39.980 m², Large (>1 m²)

Expand to show TLE details & history

TLE from 14 hours ago
0 FALCON 9 R/B
1 44480U 19050B   25182.62804280  .00030158  00000-0  97399-3 0  9990
2 44480  26.1799  53.1231 5964712 339.6388   4.2441  4.17057771 65112
Epoch: 2025-07-01T15:04Z
TLE epoch observation values (Epoch: 2025-07-01T15:04:22.897Z)
Latitude
0.00049°
Longitude
-92.88933°
Altitude
364.493 km
Speed
9.684 km/s
True Right ascension
03h 32m 30s
True Declination
0° 00' 02"
Sunlit
Object was in daylight at epoch
Visualization orbit readout
Latitude
10.45809°
Longitude
64.62087°
Altitude
19,506.935 km
Speed
2.52 km/s
Apparent Right ascension
13h 28m 21s
Apparent Declination
1° 36' 36"
Sunlit
Object is in daylight
Visualization observer readout
Local Sidereal Time
16:50:39
Azimuth
243.452° WSW
Elevation
30.326°
Doppler factor
1
Orbital elements
Apogee altitude
19,655.265 km
Perigee altitude
202.143 km
Semi-major axis
16,306.841 km
Eccentricity
0.59647
Inclination
26.1799°
RAAN
53.1231°
Arg. of periapsis
339.6388°
True anomaly
Unknown
Mean anomaly
4.2441°
Eccentric anomaly
Unknown
Mean motion
1.04229 °/min
Orbital period
345.39 mins
BSTAR
0.00097399
Loading maneuver chart data...
Loading SW <> Apogee altitude chart data...
Loading historical data...
Loading historical data...
Loading historical data...
Loading historical data...
Loading historical data...
Loading historical data...
Loading historical data...
Other satellites on launch #50 in the year 2019 (2019-08-06 UTC)

FALCON 9 R/B Visibility forecast

Observer location: undefined°, undefined°

Span
Click to sort rows by Start time (UTC) header in descending order
Start Az.
Max El. time (UTC)
Max El. Az.
Max El.
End time (UTC)
End Az.
131 mins2025-07-02 05:09:07.847Z243.424° WSW2025-07-02 05:09:07.847Z243.424° WSW26.779°2025-07-02 07:20:07.847Z207.415° SW
186 mins2025-07-02 20:02:07.847Z224.841° SW2025-07-02 20:14:07.847Z154.481° SSE39.305°2025-07-02 23:08:07.847Z106.508° ESE
176 mins2025-07-03 02:13:07.847Z273.878° WNW2025-07-03 03:32:07.847Z236.111° WSW33.926°2025-07-03 05:09:07.847Z216.151° SW
|